User: anonymous   Login
Location: Caltech
(34.1382°N, 118.1253°W)
Time: 00:50:06
(UTC-07:00)
Language:

Cosmos 2251 Rocket - Orbit

View from above orbital plane
View from above orbital plane
View from above satellite
View from above satellite

Ground track
Ground track

The orbit data is extracted from the following two-line orbital elements,

1 22676U 93036B   17234.05617753 -.00000061 +00000-0 -12389-4 0  9991
2 22676 074.0401 061.4041 0017989 071.6943 288.6164 14.33931398264787
Epoch (UTC): 22 August 2017 01:20:53
Eccentricity: 0.0017989
inclination: 74.0401°
perigee height: 766 km
apogee height: 791 km
right ascension of ascending node: 61.4041°
argument of perigee: 71.6943°
revolutions per day: 14.33931398
mean anomaly at epoch: 288.6164°
orbit number at epoch: 26478

The dashed part of the orbit path shows where the satellite is in the earth's shadow,  

DLR